Flag for U.S.A. Weather past 2 weeks in Washington DC, District of Columbia, U.S.A.

Now
58 °F

Clear.


Feels Like: 58 °F
Forecast: 50 / 68 °F
Wind: 3 mph from Southwest

Location: Reagan National Airport

Current Time: Apr 22, 2015 at 12:55:14 AM

Latest Report: Apr 21, 2015 at 11:52 PM


Visibility: 10 mi

Pressure: 29.82 "Hg

Humidity: 46%

Dew point: 37 °F

Location of Washington DCLocation

Historic Weather in Washington DC — Graph

°F

Washington DC temperature yesterday

Maximum temperature yesterday: 70 °F (at 4:52 PM)
Minimum temperature yesterday: 58 °F (at 6:52 AM)
Average temperature yesterday: 64 °F

Past Weeks' High & Low Weather Summary

 TemperatureHumidityPressure
High83 °F (Apr 18, 4:52 PM)90% (Apr 10, 1:52 AM)30.43 "Hg (Apr 10, 1:52 AM)
Low45 °F (Apr 9, 4:00 AM)20% (Apr 12, 1:52 PM)29.50 "Hg (Apr 20, 7:52 PM)
Average61 °F61%30.09 "Hg
* Reported Apr 6 10:52 PM — Apr 21 10:52 PM, Washington DC, Weather by CustomWeather, © 2015

Note: Actual official high and low records may vary slightly from our data, if they occured in-between our weather recording intervals... More about our weather records

Advertising

Washington DC weather history for previous 24 hours

 ConditionsComfort  
Time TempWeatherWind HumidityBarometerVisibility
10:52 PM
Tue, Apr 21
58 °FClear.6 mph43%29.81 "Hg10 mi
9:52 PM62 °FPassing clouds.3 mph32%29.81 "Hg10 mi
8:52 PM65 °FPassing clouds.6 mph26%29.80 "Hg10 mi
7:52 PM67 °FPartly sunny.13 mph25%29.78 "Hg10 mi
6:52 PM68 °FPartly sunny.10 mph22%29.75 "Hg10 mi
5:52 PM69 °FScattered clouds.14 mph23%29.74 "Hg10 mi
4:52 PM70 °FPartly sunny.12 mph23%29.73 "Hg10 mi
3:52 PM69 °FScattered clouds.16 mph24%29.73 "Hg10 mi
2:52 PM68 °FPassing clouds.5 mph30%29.74 "Hg10 mi
1:52 PM67 °FPassing clouds.6 mph29%29.76 "Hg10 mi
12:52 PM66 °FPassing clouds.10 mph29%29.78 "Hg10 mi
11:52 AM65 °FPassing clouds.16 mph33%29.79 "Hg10 mi
10:52 AM64 °FPassing clouds.20 mph34%29.80 "Hg10 mi
9:52 AM62 °FPassing clouds.25 mph32%29.78 "Hg10 mi
8:52 AM61 °FPassing clouds.17 mph39%29.77 "Hg10 mi
7:52 AM59 °FPassing clouds.12 mph46%29.77 "Hg10 mi
6:52 AM58 °FPassing clouds.14 mph47%29.75 "Hg10 mi
5:52 AM60 °FMostly cloudy.20 mph49%29.71 "Hg10 mi
4:52 AM60 °FLight rain. Overcast.18 mph60%29.67 "Hg10 mi
3:52 AM63 °FPassing clouds.13 mph75%29.64 "Hg10 mi
2:52 AM62 °FMostly cloudy.3 mph83%29.62 "Hg10 mi
1:52 AM62 °FThunderstorms. Overcast.5 mph80%29.60 "Hg10 mi
12:56 AM66 °FThunderstorms. Mostly cloudy.10 mph73%29.60 "Hg10 mi
Weather by CustomWeather, © 2015

See weather overviewHow to use our weather pages